Location: Prairie Dale
(45.6972°N, 104.5033°W)
Time: 13:07:11
(UTC+00:00)

DX 1 - Pass Details

Date: 02 July 2022
Orbit: 617 x 629 km, 98.4° (Epoch: 08 August)

Event Time Altitude Azimuth Distance (km) Brightness Sun altitude
Rises 05:05:24 0° 4° (N) 2,931 ? -16.3°
Reaches altitude 10° 05:07:48 10° 353° (N) 2,017 ? -16.5°
Maximum altitude 05:11:35 29° 294° (WNW) 1,151 ? -16.8°
Drops below altitude 10° 05:15:21 10° 234° (SW) 1,999 ? -17.1°
Enters shadow 05:17:32 - 224° (SW) 2,818 ? -17.3°
